BAW541A LIPE-EGLL

Flight info

Callsign BAW541A
Flight time 1h 50m
Altitude 38000
Route LUMAV M726 ALBET DCT RESIA DCT ELMUR L613 HOC DCT LUL DCT RLP DCT ROTSI DCT KOTUN DCT NINAL DCT ABNUR DCT DIMAL DCT ALESO
Aircraft A320/M-SDE3FGHIRWY/LB1

Departure

Time 2026-05-07 13:24
Airport Bologna Guglielmo Marconi Airport (LIPE)

Arrival

Time 2026-05-07 15:15
Airport London Heathrow Airport (EGLL)
Time Latitude Longitude Altitude Speed Heading
2026-05-07 12:50 44.53034 11.29431 121 ft 0 kts 206°
2026-05-07 13:15 44.53052 11.29443 122 ft 3 kts 212°
2026-05-07 13:16 44.53070 11.29463 124 ft 3 kts 240°
2026-05-07 13:16 44.53074 11.29486 123 ft 1 kts 296°
2026-05-07 13:16 44.53073 11.29487 123 ft 0 kts 296°
2026-05-07 13:18 44.53074 11.29486 123 ft 1 kts 296°
2026-05-07 13:19 44.53079 11.29471 122 ft 3 kts 296°
2026-05-07 13:19 44.53094 11.29429 125 ft 7 kts 296°
2026-05-07 13:19 44.53132 11.29370 126 ft 10 kts 344°
2026-05-07 13:19 44.53190 11.29305 126 ft 13 kts 298°
2026-05-07 13:20 44.53236 11.29179 124 ft 16 kts 297°
2026-05-07 13:20 44.53291 11.29023 126 ft 19 kts 296°
2026-05-07 13:20 44.53355 11.28845 125 ft 21 kts 297°
2026-05-07 13:20 44.53425 11.28651 122 ft 23 kts 296°
2026-05-07 13:21 44.53497 11.28451 125 ft 23 kts 297°
2026-05-07 13:21 44.53562 11.28270 125 ft 21 kts 297°
2026-05-07 13:21 44.53607 11.28147 124 ft 22 kts 296°
2026-05-07 13:21 44.53703 11.27882 125 ft 24 kts 297°
2026-05-07 13:22 44.53759 11.27726 122 ft 18 kts 297°
2026-05-07 13:22 44.53820 11.27563 126 ft 20 kts 297°
2026-05-07 13:22 44.53883 11.27383 126 ft 19 kts 296°
2026-05-07 13:22 44.53987 11.27269 125 ft 20 kts 328°
2026-05-07 13:23 44.54052 11.27220 123 ft 16 kts 350°
2026-05-07 13:23 44.54095 11.27332 121 ft 16 kts 104°
2026-05-07 13:23 44.54043 11.27482 125 ft 22 kts 116°
2026-05-07 13:23 44.53865 11.27983 125 ft 91 kts 117°
2026-05-07 13:24 44.53495 11.29007 126 ft 143 kts 116°
2026-05-07 13:24 44.53017 11.30387 408 ft 157 kts 112°
2026-05-07 13:24 44.52645 11.31816 946 ft 156 kts 93°
2026-05-07 13:24 44.52745 11.33311 1461 ft 156 kts 69°
2026-05-07 13:25 44.53392 11.34732 1547 ft 190 kts 43°
2026-05-07 13:25 44.54588 11.35719 1690 ft 214 kts 14°
2026-05-07 13:25 44.56142 11.35987 2075 ft 234 kts
2026-05-07 13:25 44.57742 11.36471 2842 ft 237 kts 19°
2026-05-07 13:26 44.59254 11.37359 3719 ft 235 kts 29°
2026-05-07 13:26 44.60667 11.38455 4647 ft 228 kts 30°
2026-05-07 13:26 44.62025 11.39562 5427 ft 226 kts 31°
2026-05-07 13:26 44.63390 11.40708 6081 ft 231 kts 30°
2026-05-07 13:27 44.64781 11.41919 6651 ft 238 kts 34°
2026-05-07 13:27 44.66159 11.43341 7046 ft 259 kts 37°
2026-05-07 13:27 44.67602 11.45015 7292 ft 285 kts 40°
2026-05-07 13:27 44.69145 11.46940 7624 ft 306 kts 40°
2026-05-07 13:28 44.70712 11.48870 8689 ft 296 kts 39°
2026-05-07 13:28 44.72291 11.50747 9524 ft 298 kts 38°
2026-05-07 13:28 44.73902 11.52635 10188 ft 305 kts 38°
2026-05-07 13:28 44.75578 11.54630 10433 ft 327 kts 38°
2026-05-07 13:29 44.77380 11.56780 10601 ft 349 kts 38°
2026-05-07 13:29 44.79303 11.58957 11099 ft 356 kts 31°
2026-05-07 13:29 44.81526 11.60471 11733 ft 356 kts 14°
2026-05-07 13:29 44.83920 11.61069 12378 ft 354 kts 358°
2026-05-07 13:30 44.86364 11.60809 13039 ft 353 kts 349°
2026-05-07 13:30 44.88816 11.60373 13714 ft 356 kts 349°
2026-05-07 13:30 44.91319 11.59930 14317 ft 359 kts 349°
2026-05-07 13:30 44.93775 11.59497 14890 ft 362 kts 349°
2026-05-07 13:31 44.96286 11.59055 15465 ft 365 kts 349°
2026-05-07 13:31 44.98814 11.58613 16031 ft 367 kts 349°
2026-05-07 13:31 45.01363 11.58169 16611 ft 370 kts 349°
2026-05-07 13:31 45.03927 11.57723 17178 ft 373 kts 349°
2026-05-07 13:32 45.06506 11.57274 17747 ft 376 kts 349°
2026-05-07 13:32 45.09113 11.56820 18322 ft 379 kts 349°
2026-05-07 13:32 45.11735 11.56361 18843 ft 381 kts 349°
2026-05-07 13:32 45.14381 11.55893 19369 ft 384 kts 348°
2026-05-07 13:33 45.17048 11.55421 19880 ft 387 kts 348°
2026-05-07 13:33 45.19741 11.54948 20423 ft 390 kts 348°
2026-05-07 13:33 45.22448 11.54475 20953 ft 393 kts 348°
2026-05-07 13:33 45.25137 11.54005 21459 ft 395 kts 348°
2026-05-07 13:34 45.27877 11.53524 21937 ft 398 kts 348°
2026-05-07 13:34 45.33422 11.52547 22867 ft 404 kts 348°
2026-05-07 13:34 45.36241 11.52050 23321 ft 407 kts 348°
2026-05-07 13:35 45.39042 11.51442 23731 ft 406 kts 341°
2026-05-07 13:35 45.41716 11.50215 24098 ft 402 kts 331°
2026-05-07 13:35 45.44172 11.48351 24473 ft 398 kts 321°
2026-05-07 13:35 45.46341 11.45937 24848 ft 394 kts 312°
2026-05-07 13:36 45.48328 11.43235 25225 ft 395 kts 311°
2026-05-07 13:36 45.50323 11.40521 25592 ft 397 kts 311°
2026-05-07 13:36 45.52307 11.37822 25951 ft 398 kts 311°
2026-05-07 13:36 45.54314 11.35086 26308 ft 400 kts 311°
2026-05-07 13:37 45.56329 11.32338 26663 ft 402 kts 311°
2026-05-07 13:37 45.58351 11.29573 27009 ft 404 kts 311°
2026-05-07 13:37 45.60385 11.26787 27353 ft 406 kts 310°
2026-05-07 13:37 45.62426 11.23995 27738 ft 408 kts 311°
2026-05-07 13:38 45.64487 11.21174 28020 ft 412 kts 311°
2026-05-07 13:38 45.66561 11.18335 28361 ft 414 kts 311°
2026-05-07 13:38 45.68645 11.15480 28702 ft 416 kts 311°
2026-05-07 13:38 45.70729 11.12623 29153 ft 415 kts 311°
2026-05-07 13:39 45.72804 11.09770 29662 ft 413 kts 310°
2026-05-07 13:39 45.74871 11.06919 30172 ft 411 kts 310°
2026-05-07 13:39 45.76926 11.04084 30617 ft 410 kts 310°
2026-05-07 13:39 45.78974 11.01258 31077 ft 407 kts 310°
2026-05-07 13:40 45.81010 10.98442 31507 ft 406 kts 310°
2026-05-07 13:40 45.83033 10.95639 31893 ft 405 kts 310°
2026-05-07 13:40 45.85060 10.92829 32263 ft 405 kts 311°
2026-05-07 13:40 45.87090 10.90010 32509 ft 407 kts 311°
2026-05-07 13:41 45.89128 10.87175 32794 ft 409 kts 311°
2026-05-07 13:41 45.91171 10.84334 33148 ft 409 kts 311°
2026-05-07 13:41 45.93213 10.81497 33537 ft 408 kts 310°
2026-05-07 13:41 45.95228 10.78698 33906 ft 407 kts 310°
2026-05-07 13:42 45.97263 10.75864 34184 ft 407 kts 310°
2026-05-07 13:42 45.99294 10.73025 34445 ft 407 kts 310°
2026-05-07 13:42 46.01328 10.70174 34707 ft 408 kts 310°
2026-05-07 13:42 46.03367 10.67318 34951 ft 409 kts 310°
2026-05-07 13:43 46.05403 10.64470 35180 ft 409 kts 311°
2026-05-07 13:43 46.07449 10.61609 35410 ft 410 kts 310°
2026-05-07 13:43 46.09474 10.58770 35587 ft 412 kts 311°
2026-05-07 13:43 46.11534 10.55880 35778 ft 413 kts 311°
2026-05-07 13:44 46.13599 10.52975 35984 ft 415 kts 311°
2026-05-07 13:44 46.15664 10.50066 36217 ft 414 kts 311°
2026-05-07 13:44 46.17724 10.47158 36430 ft 415 kts 311°
2026-05-07 13:44 46.19795 10.44239 36625 ft 415 kts 310°
2026-05-07 13:45 46.21863 10.41318 36847 ft 415 kts 311°
2026-05-07 13:45 46.23925 10.38398 37069 ft 415 kts 311°
2026-05-07 13:45 46.25963 10.35508 37252 ft 415 kts 311°
2026-05-07 13:45 46.28026 10.32583 37449 ft 416 kts 311°
2026-05-07 13:46 46.30096 10.29648 37643 ft 416 kts 311°
2026-05-07 13:46 46.32161 10.26720 37850 ft 416 kts 311°
2026-05-07 13:46 46.34230 10.23784 37972 ft 418 kts 311°
2026-05-07 13:47 46.38393 10.17856 37984 ft 419 kts 311°
2026-05-07 13:47 46.42556 10.11921 38019 ft 419 kts 311°
2026-05-07 13:48 46.46707 10.05977 38023 ft 419 kts 310°
2026-05-07 13:48 46.50701 9.99919 38029 ft 417 kts 307°
2026-05-07 13:49 46.54516 9.93538 38048 ft 417 kts 306°
2026-05-07 13:49 46.58305 9.87123 38040 ft 419 kts 307°
2026-05-07 13:50 46.62153 9.80731 38041 ft 420 kts 307°
2026-05-07 13:50 46.66028 9.74349 38044 ft 420 kts 307°
2026-05-07 13:51 46.69889 9.67959 38046 ft 420 kts 307°
2026-05-07 13:51 46.73739 9.61549 38041 ft 420 kts 307°
2026-05-07 13:52 46.77565 9.55160 38043 ft 420 kts 307°
2026-05-07 13:52 46.81407 9.48726 38043 ft 420 kts 307°
2026-05-07 13:53 46.85248 9.42278 38023 ft 421 kts 307°
2026-05-07 13:53 46.89098 9.35806 38038 ft 422 kts 307°
2026-05-07 13:54 46.92954 9.29337 38050 ft 421 kts 307°
2026-05-07 13:54 46.96793 9.22874 38046 ft 420 kts 307°
2026-05-07 13:55 47.00597 9.16444 38043 ft 420 kts 307°
2026-05-07 13:55 47.04424 9.09947 38062 ft 421 kts 307°
2026-05-07 13:56 47.08247 9.03448 38057 ft 421 kts 307°
2026-05-07 13:56 47.12078 8.96921 38063 ft 422 kts 307°
2026-05-07 13:57 47.15624 8.90145 38060 ft 417 kts 296°
2026-05-07 13:57 47.17842 8.82314 38056 ft 414 kts 288°
2026-05-07 13:58 47.19856 8.74382 38046 ft 415 kts 288°
2026-05-07 13:58 47.21886 8.66431 38055 ft 415 kts 288°
2026-05-07 13:59 47.23903 8.58470 38048 ft 415 kts 288°
2026-05-07 13:59 47.25912 8.50493 38047 ft 416 kts 288°
2026-05-07 14:00 47.27926 8.42490 38042 ft 416 kts 288°
2026-05-07 14:00 47.29918 8.34541 38048 ft 416 kts 288°
2026-05-07 14:01 47.31924 8.26537 38037 ft 417 kts 288°
2026-05-07 14:01 47.33922 8.18517 38034 ft 417 kts 288°
2026-05-07 14:02 47.35914 8.10479 38035 ft 417 kts 288°
2026-05-07 14:02 47.37897 8.02427 38036 ft 418 kts 288°
2026-05-07 14:03 47.39878 7.94372 38027 ft 418 kts 288°
2026-05-07 14:03 47.41854 7.86299 38033 ft 418 kts 288°
2026-05-07 14:04 47.43810 7.78263 38038 ft 418 kts 287°
2026-05-07 14:04 47.45775 7.70168 38043 ft 419 kts 287°
2026-05-07 14:05 47.47436 7.61940 38044 ft 417 kts 282°
2026-05-07 14:05 47.48835 7.53601 38047 ft 417 kts 282°
2026-05-07 14:06 47.50232 7.45263 38047 ft 418 kts 282°
2026-05-07 14:06 47.51619 7.36918 38042 ft 418 kts 282°
2026-05-07 14:07 47.52991 7.28572 38042 ft 418 kts 282°
2026-05-07 14:07 47.54356 7.20263 38042 ft 418 kts 282°
2026-05-07 14:08 47.55724 7.11901 38049 ft 418 kts 282°
2026-05-07 14:08 47.57089 7.03535 38049 ft 418 kts 282°
2026-05-07 14:09 47.58448 6.95165 38052 ft 418 kts 282°
2026-05-07 14:09 47.59794 6.86792 38060 ft 418 kts 282°
2026-05-07 14:10 47.61142 6.78401 38052 ft 418 kts 282°
2026-05-07 14:10 47.62473 6.70058 38051 ft 418 kts 282°
2026-05-07 14:11 47.63807 6.61662 38055 ft 418 kts 281°
2026-05-07 14:11 47.65136 6.53261 38066 ft 419 kts 281°
2026-05-07 14:12 47.66235 6.46260 38066 ft 419 kts 281°
2026-05-07 14:12 47.67548 6.37828 38074 ft 419 kts 281°
2026-05-07 14:13 47.68858 6.29398 38071 ft 420 kts 282°
2026-05-07 14:13 47.70472 6.21053 38078 ft 421 kts 286°
2026-05-07 14:14 47.72331 6.12807 38071 ft 421 kts 287°
2026-05-07 14:14 47.74170 6.04534 38069 ft 421 kts 286°
2026-05-07 14:15 47.75926 5.96232 38078 ft 421 kts 285°
2026-05-07 14:15 47.77645 5.87955 38082 ft 422 kts 285°
2026-05-07 14:16 47.79382 5.79621 38083 ft 422 kts 285°
2026-05-07 14:16 47.81118 5.71280 38072 ft 422 kts 285°
2026-05-07 14:17 47.82843 5.62932 38077 ft 422 kts 285°
2026-05-07 14:17 47.84569 5.54584 38076 ft 422 kts 285°
2026-05-07 14:18 47.86289 5.46220 38091 ft 422 kts 285°
2026-05-07 14:18 47.88000 5.37857 38083 ft 422 kts 285°
2026-05-07 14:19 47.89712 5.29488 38081 ft 423 kts 288°
2026-05-07 14:19 47.92521 5.21855 38075 ft 427 kts 307°
2026-05-07 14:20 47.96543 5.15219 38071 ft 429 kts 309°
2026-05-07 14:20 48.00532 5.08651 38081 ft 430 kts 309°
2026-05-07 14:21 48.04540 5.02014 38077 ft 431 kts 309°
2026-05-07 14:21 48.08555 4.95357 38082 ft 431 kts 309°
2026-05-07 14:22 48.12581 4.88673 38102 ft 432 kts 309°
2026-05-07 14:22 48.16576 4.82007 38095 ft 432 kts 309°
2026-05-07 14:23 48.20594 4.75301 38090 ft 433 kts 309°
2026-05-07 14:23 48.24610 4.68575 38097 ft 433 kts 309°
2026-05-07 14:24 48.28625 4.61833 38092 ft 433 kts 309°
2026-05-07 14:24 48.32640 4.55086 38091 ft 433 kts 309°
2026-05-07 14:25 48.36650 4.48313 38097 ft 433 kts 309°
2026-05-07 14:25 48.40636 4.41581 38095 ft 434 kts 309°
2026-05-07 14:26 48.44646 4.34780 38097 ft 434 kts 309°
2026-05-07 14:26 48.48653 4.27965 38105 ft 435 kts 309°
2026-05-07 14:27 48.52660 4.21127 38097 ft 435 kts 309°
2026-05-07 14:27 48.56659 4.14278 38096 ft 435 kts 309°
2026-05-07 14:28 48.60662 4.07421 38104 ft 435 kts 309°
2026-05-07 14:28 48.64671 4.00548 38106 ft 435 kts 309°
2026-05-07 14:29 48.68668 3.93657 38102 ft 436 kts 309°
2026-05-07 14:29 48.72663 3.86758 38090 ft 436 kts 310°
2026-05-07 14:30 48.76897 3.80158 38087 ft 437 kts 314°
2026-05-07 14:30 48.81318 3.73801 38082 ft 438 kts 314°
2026-05-07 14:31 48.85717 3.67406 38082 ft 438 kts 313°
2026-05-07 14:31 48.90036 3.60968 38082 ft 438 kts 313°
2026-05-07 14:32 48.94360 3.54454 38080 ft 438 kts 313°
2026-05-07 14:32 48.98714 3.47891 38088 ft 438 kts 313°
2026-05-07 14:33 49.03044 3.41354 38089 ft 438 kts 313°
2026-05-07 14:33 49.07344 3.34855 38079 ft 439 kts 313°
2026-05-07 14:34 49.11678 3.28290 38076 ft 439 kts 313°
2026-05-07 14:34 49.16017 3.21701 38084 ft 439 kts 313°
2026-05-07 14:35 49.20353 3.15095 38080 ft 440 kts 313°
2026-05-07 14:35 49.24683 3.08476 38084 ft 440 kts 313°
2026-05-07 14:36 49.28984 3.01899 38084 ft 440 kts 312°
2026-05-07 14:36 49.33309 2.95262 38084 ft 440 kts 312°
2026-05-07 14:37 49.37639 2.88595 38080 ft 441 kts 312°
2026-05-07 14:37 49.44124 2.78564 38078 ft 441 kts 312°
2026-05-07 14:38 49.48438 2.71877 38073 ft 440 kts 312°
2026-05-07 14:38 49.52750 2.65171 38087 ft 441 kts 312°
2026-05-07 14:39 49.57063 2.58446 38082 ft 441 kts 312°
2026-05-07 14:39 49.61500 2.51901 38076 ft 444 kts 320°
2026-05-07 14:40 49.66423 2.46146 38083 ft 444 kts 320°
2026-05-07 14:40 49.71325 2.40404 38088 ft 445 kts 320°
2026-05-07 14:41 49.76284 2.34569 38095 ft 445 kts 320°
2026-05-07 14:41 49.81178 2.28783 38094 ft 446 kts 320°
2026-05-07 14:42 49.86102 2.22953 38096 ft 446 kts 320°
2026-05-07 14:42 49.91069 2.17070 38092 ft 446 kts 320°
2026-05-07 14:43 49.95959 2.11255 38098 ft 446 kts 320°
2026-05-07 14:43 50.00880 2.05383 38093 ft 446 kts 320°
2026-05-07 14:44 50.05804 1.99494 38093 ft 447 kts 320°
2026-05-07 14:44 50.10733 1.93589 38094 ft 447 kts 320°
2026-05-07 14:45 50.15657 1.87666 38026 ft 447 kts 320°
2026-05-07 14:45 50.18023 1.84550 37751 ft 443 kts 313°
2026-05-07 14:45 50.20224 1.81193 37493 ft 442 kts 313°
2026-05-07 14:46 50.22423 1.77840 37220 ft 442 kts 313°
2026-05-07 14:46 50.24626 1.74484 36956 ft 441 kts 313°
2026-05-07 14:46 50.26823 1.71136 36410 ft 442 kts 313°
2026-05-07 14:46 50.29027 1.67772 35699 ft 444 kts 313°
2026-05-07 14:47 50.31238 1.64392 34945 ft 445 kts 313°
2026-05-07 14:47 50.33461 1.60984 34164 ft 447 kts 313°
2026-05-07 14:47 50.35683 1.57577 33311 ft 447 kts 313°
2026-05-07 14:47 50.37849 1.54259 32917 ft 438 kts 313°
2026-05-07 14:48 50.40011 1.50942 32382 ft 433 kts 313°
2026-05-07 14:48 50.42150 1.47651 31874 ft 428 kts 313°
2026-05-07 14:48 50.44264 1.44388 31340 ft 425 kts 313°
2026-05-07 14:48 50.46359 1.41144 30822 ft 421 kts 313°
2026-05-07 14:49 50.48435 1.37925 30307 ft 418 kts 313°
2026-05-07 14:49 50.50480 1.34709 29741 ft 414 kts 311°
2026-05-07 14:49 50.52450 1.31457 29229 ft 408 kts 310°
2026-05-07 14:49 50.54361 1.28194 28729 ft 403 kts 310°
2026-05-07 14:50 50.56235 1.24947 28227 ft 399 kts 310°
2026-05-07 14:50 50.58092 1.21730 27736 ft 395 kts 310°
2026-05-07 14:50 50.59976 1.18606 27259 ft 392 kts 312°
2026-05-07 14:50 50.61894 1.15559 26791 ft 390 kts 313°
2026-05-07 14:51 50.63815 1.12568 26334 ft 387 kts 313°
2026-05-07 14:51 50.65735 1.09596 25880 ft 386 kts 313°
2026-05-07 14:51 50.67636 1.06638 25447 ft 384 kts 313°
2026-05-07 14:51 50.69527 1.03673 25011 ft 382 kts 313°
2026-05-07 14:52 50.71402 1.00713 24580 ft 381 kts 313°
2026-05-07 14:52 50.73270 0.97742 24146 ft 380 kts 312°
2026-05-07 14:52 50.75128 0.94773 23720 ft 380 kts 312°
2026-05-07 14:52 50.76982 0.91808 23230 ft 379 kts 312°
2026-05-07 14:53 50.78828 0.88857 22789 ft 376 kts 313°
2026-05-07 14:53 50.80658 0.85933 22341 ft 373 kts 313°
2026-05-07 14:53 50.82478 0.83026 21897 ft 370 kts 313°
2026-05-07 14:53 50.84279 0.80140 21437 ft 368 kts 312°
2026-05-07 14:54 50.86051 0.77303 20985 ft 365 kts 313°
2026-05-07 14:54 50.87832 0.74451 20514 ft 363 kts 313°
2026-05-07 14:54 50.89608 0.71601 20019 ft 361 kts 313°
2026-05-07 14:54 50.91366 0.68776 19531 ft 360 kts 313°
2026-05-07 14:55 50.93118 0.65952 19043 ft 358 kts 312°
2026-05-07 14:55 50.94860 0.63132 18551 ft 357 kts 312°
2026-05-07 14:55 50.96594 0.60326 18028 ft 355 kts 313°
2026-05-07 14:55 50.98327 0.57531 17395 ft 356 kts 313°
2026-05-07 14:56 51.00070 0.54721 16741 ft 358 kts 313°
2026-05-07 14:56 51.01820 0.51898 16095 ft 359 kts 313°
2026-05-07 14:56 51.03550 0.49100 15458 ft 361 kts 313°
2026-05-07 14:56 51.05308 0.46244 14816 ft 362 kts 313°
2026-05-07 14:57 51.07067 0.43383 14289 ft 359 kts 313°
2026-05-07 14:57 51.08834 0.40600 13512 ft 355 kts 315°
2026-05-07 14:57 51.10622 0.37874 12900 ft 355 kts 315°
2026-05-07 14:57 51.12412 0.35186 12291 ft 355 kts 315°
2026-05-07 14:58 51.14193 0.32507 11885 ft 349 kts 315°
2026-05-07 14:58 51.15936 0.29870 11605 ft 340 kts 315°
2026-05-07 14:58 51.17619 0.27317 11481 ft 328 kts 315°
2026-05-07 14:58 51.18704 0.25663 11398 ft 319 kts 315°
2026-05-07 14:59 51.20250 0.23300 11269 ft 298 kts 315°
2026-05-07 14:59 51.21713 0.21054 10898 ft 288 kts 314°
2026-05-07 14:59 51.23143 0.18848 10394 ft 285 kts 314°
2026-05-07 14:59 51.24567 0.16648 10101 ft 284 kts 314°
2026-05-07 15:00 51.25982 0.14460 9825 ft 282 kts 314°
2026-05-07 15:00 51.27392 0.12282 9515 ft 281 kts 314°
2026-05-07 15:00 51.28792 0.10123 9218 ft 279 kts 314°
2026-05-07 15:00 51.30175 0.07988 8747 ft 274 kts 314°
2026-05-07 15:01 51.31540 0.05877 8205 ft 271 kts 314°
2026-05-07 15:01 51.32681 0.03566 7672 ft 266 kts 296°
2026-05-07 15:01 51.33256 0.00797 7229 ft 262 kts 276°
2026-05-07 15:01 51.33437 -0.02087 6652 ft 260 kts 275°
2026-05-07 15:02 51.33605 -0.04921 6293 ft 251 kts 275°
2026-05-07 15:02 51.33771 -0.07669 5837 ft 246 kts 275°
2026-05-07 15:02 51.33934 -0.10381 5348 ft 243 kts 275°
2026-05-07 15:02 51.34097 -0.13074 4958 ft 243 kts 275°
2026-05-07 15:03 51.34260 -0.15750 4674 ft 241 kts 275°
2026-05-07 15:03 51.34419 -0.18408 4375 ft 239 kts 274°
2026-05-07 15:03 51.34577 -0.21037 4182 ft 234 kts 274°
2026-05-07 15:03 51.34727 -0.23587 4070 ft 228 kts 274°
2026-05-07 15:04 51.34873 -0.26113 4000 ft 228 kts 274°
2026-05-07 15:04 51.35019 -0.28656 4006 ft 229 kts 275°
2026-05-07 15:04 51.35165 -0.31202 4007 ft 230 kts 274°
2026-05-07 15:04 51.35312 -0.33739 4008 ft 229 kts 274°
2026-05-07 15:05 51.35457 -0.36238 4008 ft 229 kts 275°
2026-05-07 15:05 51.35605 -0.38776 4008 ft 230 kts 275°
2026-05-07 15:05 51.35753 -0.41321 4008 ft 230 kts 275°
2026-05-07 15:05 51.35901 -0.43867 4009 ft 229 kts 274°
2026-05-07 15:06 51.36046 -0.46415 4009 ft 230 kts 274°
2026-05-07 15:06 51.36190 -0.48956 4008 ft 229 kts 274°
2026-05-07 15:06 51.36333 -0.51490 4008 ft 229 kts 274°
2026-05-07 15:06 51.36477 -0.54036 4008 ft 230 kts 274°
2026-05-07 15:07 51.36619 -0.56582 4009 ft 229 kts 274°
2026-05-07 15:07 51.36760 -0.59116 4007 ft 229 kts 274°
2026-05-07 15:07 51.36903 -0.61650 4008 ft 229 kts 274°
2026-05-07 15:07 51.37045 -0.64186 4008 ft 229 kts 274°
2026-05-07 15:08 51.37149 -0.66719 4005 ft 227 kts 270°
2026-05-07 15:08 51.37151 -0.69191 4004 ft 219 kts 268°
2026-05-07 15:08 51.37118 -0.71620 3990 ft 218 kts 267°
2026-05-07 15:08 51.37104 -0.74004 3867 ft 217 kts 275°
2026-05-07 15:09 51.37570 -0.76277 3723 ft 217 kts 302°
2026-05-07 15:09 51.38635 -0.77976 3603 ft 219 kts 329°
2026-05-07 15:09 51.40077 -0.78729 3475 ft 220 kts 355°
2026-05-07 15:09 51.41614 -0.78818 3490 ft 223 kts 357°
2026-05-07 15:10 51.43165 -0.78887 3498 ft 223 kts 360°
2026-05-07 15:10 51.44692 -0.78483 3370 ft 221 kts 20°
2026-05-07 15:10 51.46003 -0.77307 3240 ft 212 kts 40°
2026-05-07 15:10 51.46963 -0.75568 3113 ft 206 kts 59°
2026-05-07 15:11 51.47511 -0.73490 2941 ft 201 kts 78°
2026-05-07 15:11 51.47629 -0.71278 2835 ft 201 kts 91°
2026-05-07 15:11 51.47643 -0.69033 2624 ft 201 kts 90°
2026-05-07 15:11 51.47658 -0.66824 2394 ft 196 kts 90°
2026-05-07 15:12 51.47670 -0.64672 2108 ft 194 kts 91°
2026-05-07 15:12 51.47682 -0.62559 1850 ft 184 kts 90°
2026-05-07 15:12 51.47693 -0.60580 1602 ft 170 kts 90°
2026-05-07 15:12 51.47702 -0.58771 1403 ft 155 kts 90°
2026-05-07 15:13 51.47710 -0.57089 1189 ft 148 kts 90°
2026-05-07 15:13 51.47717 -0.55457 1007 ft 145 kts 90°
2026-05-07 15:13 51.47720 -0.53859 759 ft 142 kts 90°
2026-05-07 15:13 51.47728 -0.52303 601 ft 138 kts 89°
2026-05-07 15:14 51.47742 -0.50776 410 ft 136 kts 88°
2026-05-07 15:14 51.47755 -0.49264 212 ft 135 kts 89°
2026-05-07 15:14 51.47751 -0.47771 96 ft 129 kts 85°
2026-05-07 15:14 51.47760 -0.46563 89 ft 84 kts 90°
2026-05-07 15:15 51.47757 -0.45832 86 ft 55 kts 90°
2026-05-07 15:15 51.47757 -0.45394 89 ft 28 kts 90°
2026-05-07 15:15 51.47719 -0.45188 87 ft 12 kts 144°
2026-05-07 15:15 51.47663 -0.45176 90 ft 5 kts 176°
2026-05-07 15:16 51.47656 -0.45175 90 ft 0 kts 179°
2026-05-07 15:16 51.47649 -0.45175 86 ft 6 kts 179°
2026-05-07 15:16 51.47596 -0.45261 90 ft 16 kts 268°
2026-05-07 15:17 51.47597 -0.45454 86 ft 18 kts 270°
2026-05-07 15:17 51.47596 -0.45631 86 ft 16 kts 270°
2026-05-07 15:17 51.47597 -0.45822 86 ft 18 kts 270°
2026-05-07 15:17 51.47595 -0.46020 87 ft 14 kts 269°
2026-05-07 15:18 51.47595 -0.46186 90 ft 16 kts 270°
2026-05-07 15:18 51.47595 -0.46375 89 ft 18 kts 269°
2026-05-07 15:18 51.47593 -0.46589 86 ft 20 kts 269°
2026-05-07 15:18 51.47592 -0.46797 86 ft 18 kts 269°
2026-05-07 15:19 51.47583 -0.47005 86 ft 20 kts 269°
2026-05-07 15:19 51.47583 -0.47220 90 ft 15 kts 270°
2026-05-07 15:19 51.47581 -0.47395 91 ft 17 kts 269°
2026-05-07 15:19 51.47581 -0.47595 86 ft 19 kts 269°
2026-05-07 15:20 51.47580 -0.47820 88 ft 20 kts 269°
2026-05-07 15:20 51.47579 -0.48034 87 ft 18 kts 270°
2026-05-07 15:20 51.47579 -0.48246 87 ft 20 kts 270°
2026-05-07 15:20 51.47576 -0.48418 89 ft 12 kts 261°
2026-05-07 15:21 51.47501 -0.48474 86 ft 14 kts 179°
2026-05-07 15:21 51.47398 -0.48475 86 ft 16 kts 180°
2026-05-07 15:21 51.47281 -0.48474 86 ft 15 kts 179°
2026-05-07 15:21 51.47237 -0.48498 89 ft 7 kts 247°
2026-05-07 15:22 51.47233 -0.48575 87 ft 6 kts 269°
2026-05-07 15:22 51.47233 -0.48586 89 ft 0 kts 269°